TimeCST,TemperatureF,Dew PointF,Humidity,Sea Level PressureIn,VisibilityMPH,Wind Direction,Wind SpeedMPH,Gust SpeedMPH,PrecipitationIn,Events,Conditions,WindDirDegrees,DateUTC
12:15 AM,28.4,28.4,100,30.09,7.0,SE,4.6,-,N/A,,Clear,130,2013-03-03 06:15:00
12:35 AM,28.4,28.4,100,30.08,7.0,SE,5.8,-,N/A,,Clear,130,2013-03-03 06:35:00
12:55 AM,28.2,28.2,100,30.07,7.0,SE,5.8,-,N/A,,Clear,130,2013-03-03 06:55:00
1:15 AM,28.2,28.2,100,30.07,7.0,SE,6.9,-,N/A,,Clear,140,2013-03-03 07:15:00
1:35 AM,27.9,27.9,100,30.06,7.0,SE,6.9,-,N/A,,Clear,140,2013-03-03 07:35:00
1:55 AM,27.5,27.5,100,30.06,7.0,SE,6.9,-,N/A,,Clear,130,2013-03-03 07:55:00
2:15 AM,27.5,27.5,100,30.05,7.0,SE,6.9,-,N/A,,Clear,140,2013-03-03 08:15:00
2:35 AM,27.5,27.5,100,30.03,7.0,SE,6.9,-,N/A,,Clear,140,2013-03-03 08:35:00
2:55 AM,27.5,27.5,100,30.03,7.0,SE,6.9,-,N/A,,Clear,130,2013-03-03 08:55:00
3:15 AM,27.1,27.1,100,30.02,7.0,SE,6.9,-,N/A,,Clear,140,2013-03-03 09:15:00
3:35 AM,27.5,27.5,100,30.01,7.0,SE,5.8,-,N/A,,Clear,140,2013-03-03 09:35:00
3:55 AM,27.1,27.1,100,30.00,7.0,SE,6.9,-,N/A,,Clear,130,2013-03-03 09:55:00
4:15 AM,27.1,27.1,100,29.99,7.0,SE,6.9,-,N/A,,Clear,130,2013-03-03 10:15:00
4:35 AM,27.1,27.1,100,29.99,7.0,SE,6.9,-,N/A,,Clear,140,2013-03-03 10:35:00
4:55 AM,27.0,27.0,100,29.99,7.0,SE,4.6,-,N/A,,Clear,130,2013-03-03 10:55:00
5:15 AM,27.3,27.3,100,29.99,10.0,SE,4.6,-,N/A,,Clear,130,2013-03-03 11:15:00
5:35 AM,27.1,27.1,100,29.98,7.0,SE,5.8,-,N/A,,Clear,130,2013-03-03 11:35:00
5:55 AM,27.1,27.1,100,29.98,7.0,SE,6.9,-,N/A,,Clear,130,2013-03-03 11:55:00
6:15 AM,27.1,27.1,100,29.97,7.0,SE,8.1,-,N/A,,Clear,130,2013-03-03 12:15:00
6:35 AM,26.6,26.6,100,29.97,7.0,SE,8.1,-,N/A,,Clear,130,2013-03-03 12:35:00
6:55 AM,27.1,27.1,100,29.98,7.0,SE,5.8,-,N/A,,Clear,130,2013-03-03 12:55:00
7:15 AM,27.3,27.3,100,29.98,7.0,ESE,5.8,-,N/A,,Clear,120,2013-03-03 13:15:00
7:35 AM,27.5,27.5,100,29.97,7.0,ESE,5.8,-,N/A,,Clear,120,2013-03-03 13:35:00
7:55 AM,28.0,28.0,100,29.97,7.0,SE,9.2,-,N/A,,Clear,130,2013-03-03 13:55:00
8:15 AM,28.2,28.2,100,29.96,7.0,SE,8.1,-,N/A,,Clear,130,2013-03-03 14:15:00
8:35 AM,29.3,29.3,100,29.96,10.0,SE,10.4,-,N/A,,Clear,130,2013-03-03 14:35:00
8:55 AM,30.6,30.0,98,29.95,7.0,SE,10.4,-,N/A,,Clear,130,2013-03-03 14:55:00
9:15 AM,31.8,30.7,96,29.95,10.0,SE,9.2,-,N/A,,Clear,130,2013-03-03 15:15:00
9:35 AM,32.2,31.1,96,29.94,10.0,SE,10.4,-,N/A,,Clear,140,2013-03-03 15:35:00
9:55 AM,33.1,31.6,94,29.92,10.0,SE,11.5,-,N/A,,Clear,140,2013-03-03 15:55:00
10:15 AM,33.8,32.0,93,29.92,10.0,SE,11.5,-,N/A,,Clear,130,2013-03-03 16:15:00
10:35 AM,34.7,32.0,90,29.92,10.0,ESE,9.2,-,N/A,,Clear,120,2013-03-03 16:35:00
10:55 AM,35.2,32.2,89,29.91,10.0,SE,10.4,-,N/A,,Clear,130,2013-03-03 16:55:00
11:15 AM,35.8,32.5,88,29.91,10.0,SE,11.5,16.1,N/A,,Clear,130,2013-03-03 17:15:00
11:35 AM,35.8,32.4,87,29.90,10.0,SE,11.5,-,N/A,,Scattered Clouds,140,2013-03-03 17:35:00
11:55 AM,36.3,32.9,87,29.89,10.0,ESE,9.2,17.3,N/A,,Scattered Clouds,120,2013-03-03 17:55:00
12:15 PM,37.2,33.3,86,29.87,10.0,ESE,10.4,-,N/A,,Scattered Clouds,120,2013-03-03 18:15:00
12:35 PM,37.9,33.8,85,29.87,10.0,SE,12.7,-,N/A,,Scattered Clouds,140,2013-03-03 18:35:00
12:55 PM,39.0,34.0,82,29.86,10.0,ESE,11.5,-,N/A,,Scattered Clouds,120,2013-03-03 18:55:00
1:15 PM,39.2,34.2,82,29.84,10.0,SE,12.7,-,N/A,,Scattered Clouds,130,2013-03-03 19:15:00
1:35 PM,39.2,34.2,82,29.84,10.0,SE,11.5,-,N/A,,Mostly Cloudy,130,2013-03-03 19:35:00
1:55 PM,39.6,34.7,83,29.83,10.0,ESE,8.1,-,N/A,,Scattered Clouds,110,2013-03-03 19:55:00
2:15 PM,39.4,34.9,84,29.81,10.0,ESE,10.4,16.1,N/A,,Scattered Clouds,120,2013-03-03 20:15:00
2:35 PM,39.7,35.6,85,29.82,10.0,ESE,10.4,-,N/A,,Scattered Clouds,120,2013-03-03 20:35:00
2:55 PM,39.2,34.9,84,29.81,10.0,ESE,13.8,18.4,N/A,,Scattered Clouds,120,2013-03-03 20:55:00
3:15 PM,39.4,35.1,84,29.80,10.0,ESE,11.5,17.3,N/A,,Scattered Clouds,120,2013-03-03 21:15:00
3:35 PM,39.2,34.9,84,29.81,10.0,ESE,9.2,17.3,N/A,,Scattered Clouds,120,2013-03-03 21:35:00
3:55 PM,39.2,34.7,84,29.80,10.0,ESE,12.7,18.4,N/A,,Scattered Clouds,120,2013-03-03 21:55:00
4:15 PM,39.0,34.5,84,29.79,10.0,ESE,16.1,21.9,N/A,,Mostly Cloudy,120,2013-03-03 22:15:00
4:35 PM,38.3,34.0,84,29.80,10.0,ESE,13.8,20.7,N/A,,Overcast,120,2013-03-03 22:35:00
4:55 PM,37.9,33.8,85,29.78,10.0,ESE,15.0,19.6,N/A,,Mostly Cloudy,120,2013-03-03 22:55:00
5:15 PM,37.8,33.8,86,29.76,10.0,ESE,15.0,19.6,N/A,,Mostly Cloudy,110,2013-03-03 23:15:00
5:35 PM,37.4,33.8,87,29.75,10.0,ESE,10.4,20.7,N/A,,Mostly Cloudy,110,2013-03-03 23:35:00
5:55 PM,36.7,33.3,87,29.77,10.0,SE,16.1,20.7,N/A,,Mostly Cloudy,130,2013-03-03 23:55:00
6:35 PM,36.0,32.9,89,29.78,10.0,ESE,16.1,-,N/A,,Mostly Cloudy,120,2013-03-04 00:35:00
6:55 PM,35.8,32.9,89,29.78,10.0,ESE,12.7,19.6,N/A,,Mostly Cloudy,120,2013-03-04 00:55:00
7:15 PM,35.6,32.9,90,29.78,10.0,ESE,10.4,18.4,N/A,,Overcast,120,2013-03-04 01:15:00
7:35 PM,35.6,32.5,89,29.77,10.0,ESE,12.7,25.3,N/A,,Overcast,120,2013-03-04 01:35:00
7:55 PM,35.4,32.5,89,29.76,10.0,SE,11.5,-,N/A,,Overcast,140,2013-03-04 01:55:00
8:15 PM,35.1,32.9,92,29.81,10.0,ESE,5.8,-,N/A,,Overcast,120,2013-03-04 02:15:00
8:35 PM,34.9,32.9,92,29.79,10.0,SE,13.8,-,N/A,,Mostly Cloudy,130,2013-03-04 02:35:00
8:55 PM,34.7,32.5,92,29.77,10.0,ESE,12.7,18.4,N/A,,Mostly Cloudy,120,2013-03-04 02:55:00
9:15 PM,34.7,32.4,91,29.76,10.0,SE,12.7,20.7,N/A,,Overcast,130,2013-03-04 03:15:00
9:35 PM,34.3,32.2,92,29.76,10.0,ESE,12.7,20.7,N/A,,Overcast,120,2013-03-04 03:35:00
9:55 PM,34.2,32.0,92,29.76,10.0,ESE,12.7,16.1,N/A,,Overcast,120,2013-03-04 03:55:00
10:15 PM,34.0,32.0,92,29.76,10.0,ESE,10.4,-,N/A,,Overcast,120,2013-03-04 04:15:00
10:35 PM,34.2,32.0,92,29.77,10.0,ESE,10.4,-,N/A,,Overcast,120,2013-03-04 04:35:00
10:55 PM,34.0,31.8,92,29.75,10.0,SE,10.4,-,N/A,,Mostly Cloudy,130,2013-03-04 04:55:00
11:15 PM,33.8,31.1,90,29.74,10.0,ESE,10.4,-,N/A,,Scattered Clouds,120,2013-03-04 05:15:00
11:35 PM,33.1,31.1,92,29.74,10.0,ESE,9.2,-,N/A,,Clear,120,2013-03-04 05:35:00
11:55 PM,32.9,31.1,93,29.72,10.0,ESE,9.2,-,N/A,,Clear,120,2013-03-04 05:55:00